Precipitable_Water
2.22 2.29 2.33 1.92 1.04 0.97 0.86 1.00 1.16 1.14 1.18 1.37 1.41 1.31 1.23 1.39 1.26 1.10 1.56 1.52 1.43 1.63 1.96 1.97 1.88 1.94 1.91 1.88 1.91 1.89 1.85 1.82 1.89 1.95 1.91 1.95 2.08 2.08 2.03 2.04 1.90 1.93 1.91 1.95 1.90 1.98 2.04 2.09 2.12
2.28 2.26 2.09 1.55 0.86 0.70 0.77 1.08 1.00 1.14 1.26 1.40 1.40 1.41 1.31 1.28 1.60 1.59 1.45 1.53 1.59 1.69 1.87 1.92 1.85 1.92 1.88 1.88 1.87 1.84 1.89 1.82 1.84 1.93 1.91 2.01 1.97 2.13 2.11 2.12 2.02 1.86 1.83 1.95 1.94 1.93 2.00 2.05 2.00
2.28 2.24 1.55 1.15 0.84 0.71 0.76 1.00 1.08 1.16 1.29 1.21 1.20 1.49 1.41 1.38 1.59 1.49 1.63 1.62 1.69 1.70 1.82 1.92 1.82 1.94 1.88 1.92 1.87 1.88 1.92 1.85 1.91 1.83 1.94 2.04 2.06 2.02 1.99 2.23 2.21 2.02 1.86 1.86 1.98 1.93 1.98 1.97 1.98
1.99 1.76 1.48 0.91 0.69 0.89 0.97 1.09 1.20 1.13 1.20 1.24 1.26 1.25 1.51 1.72 1.57 1.67 1.72 1.75 1.67 1.77 1.87 1.96 1.84 1.93 1.92 1.83 1.81 1.83 1.90 1.88 1.81 1.80 1.92 1.95 2.08 2.14 2.05 2.10 2.22 2.25 2.04 1.81 1.84 2.00 1.97 1.98 1.87
1.73 1.37 0.96 0.85 0.79 0.93 1.10 1.23 1.31 1.20 1.14 1.10 1.15 1.08 1.25 1.60 1.82 1.89 1.94 1.85 1.78 1.89 1.96 1.94 1.88 1.95 1.84 1.84 1.85 1.81 1.82 1.81 1.82 1.81 1.96 2.05 2.09 2.13 2.09 2.00 2.13 2.22 2.13 2.02 1.74 1.92 1.99 2.05 1.97
1.29 1.29 0.87 0.72 0.84 1.03 1.16 1.32 1.30 1.25 1.26 1.24 1.10 1.05 1.14 1.56 1.71 1.85 1.96 1.94 1.98 1.86 1.92 1.99 1.92 1.95 1.84 1.89 1.80 1.76 1.74 1.75 1.78 1.92 2.02 2.13 2.16 2.15 2.19 2.10 2.02 2.16 2.11 2.03 1.89 1.80 1.96 2.04 2.03
1.20 1.05 0.90 0.86 0.89 0.99 1.12 1.35 1.21 1.19 1.24 1.26 1.29 1.01 1.16 1.35 1.62 1.77 1.81 1.80 1.78 1.89 1.92 1.94 1.88 2.03 1.90 1.92 1.84 1.75 1.72 1.76 1.82 1.96 2.18 2.21 2.21 2.15 2.21 2.13 2.04 2.03 2.11 2.14 2.14 1.84 1.90 1.98 2.07
1.40 1.19 0.94 0.97 0.91 0.89 1.18 1.26 1.33 1.25 1.11 1.36 1.36 1.08 1.10 1.39 1.55 1.66 1.66 1.74 1.70 1.77 1.83 1.81 1.90 1.93 1.94 1.95 1.87 1.80 1.73 1.75 1.85 2.14 2.30 2.26 2.25 2.18 2.30 2.17 2.06 2.08 2.05 2.13 2.10 2.06 1.87 1.89 1.97
1.60 1.12 0.88 0.95 0.97 0.96 1.19 1.12 1.30 1.36 1.20 1.24 1.28 1.32 1.43 1.60 1.57 1.58 1.63 1.66 1.77 1.70 1.75 1.81 1.86 1.91 1.95 1.95 1.95 1.84 1.84 1.95 2.10 2.32 2.32 2.38 2.34 2.34 2.24 2.32 2.14 2.07 2.02 2.08 2.07 2.00 1.99 1.97 1.92
1.29 1.11 1.07 1.21 1.19 1.08 1.16 1.23 1.19 1.13 1.10 1.17 1.25 1.41 1.50 1.56 1.52 1.45 1.49 1.48 1.53 1.61 1.69 1.79 1.84 1.85 1.89 1.91 1.80 1.85 1.95 2.17 2.21 2.35 2.42 2.41 2.43 2.37 2.32 2.33 2.32 2.23 2.03 1.98 2.00 1.95 1.97 1.96 1.97
1.31 1.14 1.26 1.23 1.22 1.21 1.11 1.19 1.22 1.12 1.00 1.17 1.16 1.29 1.43 1.48 1.49 1.46 1.39 1.43 1.46 1.61 1.72 1.78 1.80 1.83 1.83 1.81 1.74 1.88 1.96 2.03 2.23 2.31 2.36 2.40 2.38 2.35 2.39 2.37 2.34 2.26 2.06 2.04 1.91 1.89 1.86 1.95 2.00
1.15 1.27 1.25 1.26 1.26 1.21 1.12 1.20 1.15 1.10 1.09 1.26 1.30 1.36 1.43 1.45 1.50 1.39 1.35 1.48 1.45 1.50 1.63 1.73 1.75 1.74 1.72 1.70 1.76 1.77 1.81 1.98 2.11 2.22 2.32 2.33 2.31 2.35 2.33 2.35 2.31 2.24 2.15 1.99 1.92 1.81 1.77 1.80 1.98
1.19 1.27 1.30 1.27 1.29 1.24 1.19 1.12 1.06 0.99 1.20 1.24 1.31 1.41 1.43 1.41 1.40 1.45 1.50 1.60 1.57 1.51 1.65 1.68 1.71 1.70 1.80 1.82 1.84 1.84 1.88 2.05 2.10 2.21 2.27 2.32 2.34 2.29 2.33 2.34 2.30 2.21 2.18 2.03 1.95 1.80 1.70 1.76 1.93
1.32 1.33 1.26 1.23 1.21 1.18 1.03 1.02 1.00 1.05 1.22 1.20 1.29 1.37 1.47 1.42 1.44 1.49 1.49 1.45 1.59 1.63 1.70 1.74 1.78 1.90 1.91 1.89 1.91 1.87 1.89 1.98 2.06 2.13 2.25 2.28 2.28 2.33 2.29 2.25 2.18 2.18 2.20 2.19 2.03 1.90 1.69 1.75 1.89
1.33 1.17 1.24 1.24 1.16 1.03 1.08 0.87 0.84 1.10 1.19 1.16 1.24 1.35 1.41 1.43 1.43 1.44 1.51 1.44 1.56 1.64 1.81 1.79 1.78 1.84 1.87 1.85 1.86 1.83 1.85 1.97 1.99 2.09 2.22 2.23 2.25 2.31 2.28 2.22 2.19 2.18 2.18 2.09 1.96 1.93 1.86 1.75 1.76
1.17 1.17 0.95 1.13 1.12 1.06 0.99 0.70 0.91 1.14 1.11 1.10 1.19 1.31 1.37 1.38 1.43 1.47 1.48 1.46 1.44 1.51 1.57 1.59 1.67 1.71 1.72 1.76 1.82 1.82 1.86 2.02 2.06 2.13 2.15 2.11 2.07 2.32 2.33 2.27 2.21 2.20 2.12 1.96 1.88 1.86 1.82 1.72 1.66
1.05 0.83 0.89 0.97 1.19 1.04 0.93 0.74 0.93 1.08 1.07 1.07 1.15 1.21 1.31 1.36 1.41 1.45 1.45 1.39 1.44 1.51 1.57 1.62 1.62 1.55 1.59 1.71 1.80 1.78 1.85 1.95 2.08 2.24 2.22 2.07 1.92 2.16 2.20 2.28 2.26 2.24 2.08 1.89 1.80 1.76 1.73 1.68 1.67
0.82 0.82 0.91 0.91 1.07 1.02 0.87 0.79 0.90 0.94 0.98 1.02 1.08 1.08 1.16 1.24 1.28 1.37 1.41 1.48 1.50 1.52 1.52 1.55 1.59 1.56 1.60 1.65 1.72 1.71 1.70 1.84 1.98 2.05 2.17 2.11 1.75 1.94 2.09 2.15 2.23 2.22 2.10 1.91 1.78 1.68 1.71 1.64 1.73
0.92 0.88 0.85 0.97 1.09 0.94 0.84 0.84 0.87 0.90 0.96 0.94 1.02 1.02 1.02 1.09 1.23 1.28 1.32 1.40 1.42 1.45 1.45 1.47 1.48 1.54 1.54 1.55 1.53 1.50 1.48 1.70 1.81 1.96 2.15 1.95 1.77 1.70 1.78 1.97 2.09 2.14 2.03 1.94 1.86 1.71 1.64 1.58 1.72
0.92 0.86 0.84 0.97 1.04 0.90 0.81 0.79 0.87 0.89 0.91 0.98 0.98 1.02 1.03 1.05 1.09 1.18 1.28 1.31 1.32 1.33 1.37 1.39 1.44 1.49 1.52 1.51 1.53 1.55 1.59 1.70 1.78 1.89 1.98 1.91 1.77 1.70 1.63 1.81 1.89 2.04 2.00 1.95 1.91 1.81 1.63 1.62 1.77
0.86 0.83 0.84 0.80 0.94 0.90 0.79 0.67 0.70 0.83 0.92 1.01 1.00 1.01 1.04 1.06 1.06 1.12 1.19 1.22 1.27 1.28 1.32 1.35 1.42 1.46 1.49 1.49 1.48 1.54 1.63 1.67 1.69 1.78 1.86 1.89 1.86 1.83 1.74 1.72 1.83 1.91 1.99 1.89 1.93 1.91 1.78 1.63 1.75
0.75 0.92 0.89 0.85 0.74 0.60 0.80 0.50 0.68 0.75 0.74 0.85 0.97 1.01 1.03 1.04 1.10 1.19 1.22 1.16 1.20 1.25 1.31 1.33 1.35 1.37 1.45 1.49 1.36 1.37 1.39 1.44 1.67 1.76 1.81 1.92 2.01 2.01 1.94 1.70 1.69 1.75 1.87 1.87 1.87 1.94 1.85 1.80 1.64
0.77 0.91 0.88 0.81 0.76 0.71 0.67 0.56 0.63 0.78 0.72 0.74 0.83 0.95 1.03 1.09 1.13 1.13 1.16 1.14 1.26 1.31 1.31 1.34 1.37 1.36 1.41 1.44 1.36 1.33 1.37 1.49 1.60 1.74 1.87 1.92 2.01 2.15 2.13 1.80 1.67 1.63 1.65 1.73 1.79 1.80 1.79 1.82 1.79
0.92 0.86 0.81 0.78 0.72 0.53 0.62 0.58 0.53 0.60 0.67 0.81 0.88 0.92 1.00 1.06 1.12 1.17 1.21 1.22 1.28 1.35 1.37 1.41 1.43 1.44 1.48 1.47 1.39 1.35 1.36 1.41 1.48 1.57 1.60 1.69 1.81 1.93 2.02 1.90 1.79 1.81 1.78 1.57 1.65 1.72 1.73 1.72 1.79
0.85 0.74 0.55 0.48 0.48 0.45 0.68 0.59 0.58 0.71 0.80 0.82 0.93 0.99 1.03 1.08 1.12 1.12 1.13 1.15 1.25 1.31 1.42 1.47 1.48 1.46 1.53 1.52 1.49 1.40 1.41 1.42 1.40 1.46 1.45 1.50 1.57 1.73 1.88 1.88 1.85 1.84 1.94 1.91 1.62 1.63 1.69 1.66 1.57
0.73 0.69 0.57 0.44 0.42 0.45 0.65 0.48 0.56 0.78 0.83 0.90 1.00 1.15 1.17 1.17 1.17 1.13 1.14 1.12 1.23 1.32 1.41 1.46 1.48 1.49 1.53 1.55 1.54 1.54 1.51 1.47 1.46 1.45 1.40 1.42 1.48 1.52 1.69 1.78 1.85 1.93 1.84 1.90 1.92 1.74 1.66 1.74 1.78
0.68 0.64 0.74 0.61 0.60 0.49 0.50 0.57 0.67 0.75 0.79 0.88 0.86 0.97 1.10 1.20 1.24 1.23 1.27 1.20 1.28 1.34 1.38 1.44 1.45 1.51 1.49 1.49 1.50 1.52 1.52 1.49 1.45 1.49 1.51 1.49 1.53 1.59 1.64 1.66 1.67 1.75 1.77 1.83 1.87 1.81 1.71 1.73 1.75
0.70 0.77 0.57 0.59 0.43 0.39 0.43 0.45 0.47 0.63 0.74 0.76 0.79 0.87 1.00 1.10 1.24 1.34 1.35 1.34 1.30 1.37 1.42 1.44 1.47 1.44 1.48 1.48 1.45 1.43 1.45 1.51 1.50 1.51 1.49 1.54 1.64 1.74 1.77 1.75 1.75 1.72 1.72 1.73 1.74 1.69 1.71 1.67 1.59
0.57 0.61 0.61 0.61 0.58 0.44 0.38 0.41 0.63 0.67 0.78 0.71 0.76 0.85 0.98 1.10 1.24 1.36 1.44 1.50 1.46 1.43 1.45 1.45 1.43 1.44 1.41 1.42 1.38 1.39 1.42 1.49 1.58 1.60 1.67 1.73 1.80 1.87 1.86 1.90 1.85 1.84 1.87 1.89 1.87 1.83 1.81 1.79 1.80
0.57 0.55 0.53 0.49 0.48 0.54 0.49 0.45 0.70 0.79 0.84 0.83 0.78 0.87 0.97 1.11 1.37 1.49 1.56 1.58 1.58 1.55 1.58 1.56 1.46 1.41 1.43 1.42 1.35 1.35 1.41 1.49 1.54 1.65 1.77 1.89 1.92 2.02 2.08 2.07 2.08 2.05 1.97 1.99 1.88 1.89 1.88 1.89 1.86
Wind_Speed
3 3 3 3 3 4 5 5 7 10 10 7 12 4 6 3 2 2 10 12 13 12 10 9 9 9 9 9 9 9 9 9 9 9 9 9 8 9 10 11 11 11 11 11 12 12 13 14 14
4 4 4 4 4 5 5 6 9 8 9 12 6 2 4 4 1 5 13 12 13 12 10 9 9 9 9 9 8 8 8 8 8 8 8 8 8 9 10 10 10 10 10 11 11 12 13 13 13
4 4 3 4 4 5 5 7 7 8 8 8 2 1 5 4 3 12 10 13 12 11 10 9 9 9 9 8 8 7 7 8 7 7 7 7 7 8 8 9 8 9 9 10 10 11 11 12 12
3 4 4 5 6 4 4 7 9 8 5 4 3 3 5 4 8 8 12 13 12 11 10 10 9 9 8 8 7 7 7 7 6 6 6 6 6 6 7 7 7 8 8 9 10 10 10 11 11
2 2 3 5 5 4 5 7 7 6 4 3 3 3 4 6 7 11 12 13 12 11 11 10 9 9 8 8 7 7 7 6 6 5 5 4 4 4 5 6 7 7 8 8 9 9 10 10 10
0 0 2 3 4 4 4 5 6 3 3 2 2 3 5 8 10 11 12 13 13 12 12 10 10 9 8 7 6 6 5 5 5 4 4 4 3 2 3 5 6 7 7 7 7 8 9 9 9
0 1 2 2 2 2 2 4 2 2 3 4 3 2 4 9 12 13 13 13 13 13 12 11 10 9 8 7 6 5 4 4 3 3 3 4 3 2 3 5 5 6 6 6 6 7 8 8 8
2 1 1 2 1 1 1 2 1 2 3 3 5 5 6 11 13 14 15 14 13 14 13 12 11 10 8 6 5 3 3 3 3 2 4 6 5 1 2 5 5 6 6 6 6 6 7 7 6
3 2 2 1 2 2 2 1 2 4 2 4 5 6 6 12 14 16 16 15 14 14 14 13 12 10 8 7 5 3 2 2 2 3 4 5 6 4 2 4 5 6 6 5 5 6 5 6 6
4 4 3 1 3 4 3 2 3 4 4 5 5 5 6 12 15 17 17 15 15 15 15 13 12 10 9 7 5 3 2 2 3 4 3 5 5 3 1 3 6 7 7 6 5 5 4 5 5
3 4 4 1 5 4 2 2 4 5 6 7 7 6 9 13 16 17 17 17 15 15 15 14 13 10 9 8 6 3 2 2 3 5 4 5 5 4 1 2 4 7 7 6 5 5 4 4 4
4 4 3 2 3 1 0 2 4 7 8 9 4 7 11 13 16 17 17 17 16 16 15 14 12 11 10 8 6 4 2 1 2 4 3 4 5 5 3 2 4 6 7 6 6 5 4 4 3
4 5 2 1 2 2 2 4 5 7 6 2 7 9 10 13 15 17 17 17 16 16 15 14 12 10 10 7 6 4 2 1 2 3 3 4 4 4 3 2 3 5 6 6 5 5 4 4 3
4 5 3 1 2 2 2 4 5 5 4 7 10 10 10 11 14 16 17 17 16 16 15 14 11 11 9 7 6 3 2 1 1 2 3 3 3 3 3 3 3 4 5 5 5 5 5 4 3
2 7 5 3 3 1 1 5 5 4 5 8 9 9 9 9 13 16 17 18 17 16 15 13 12 11 8 7 5 4 3 1 1 2 3 3 3 3 2 2 2 3 4 4 4 5 5 4 4
5 3 6 4 4 1 1 3 3 4 6 8 9 9 8 10 11 14 19 18 17 16 14 12 11 9 8 7 6 4 3 2 1 1 2 3 3 3 2 1 1 2 3 3 4 5 5 4 4
2 2 1 2 3 1 1 2 3 5 7 8 9 9 9 12 12 13 19 19 18 15 13 11 10 9 7 7 6 4 3 3 2 1 1 3 2 2 3 1 1 2 3 3 3 4 5 5 5
3 2 1 2 3 2 1 3 6 6 6 8 9 10 11 13 14 16 18 17 16 14 12 10 9 8 7 7 6 4 4 3 3 1 1 2 2 1 2 1 0 2 3 3 4 4 5 5 5
3 1 1 1 2 3 3 3 6 7 6 8 9 10 12 13 13 14 15 15 14 13 11 10 8 8 8 7 6 4 4 4 3 2 2 2 2 2 2 1 1 1 3 4 4 4 5 6 5
2 1 1 1 1 3 3 3 6 8 7 8 10 12 12 12 13 14 14 14 13 12 11 10 9 8 9 8 7 5 4 3 3 2 2 2 2 2 2 2 2 1 2 4 4 5 5 6 6
2 3 0 1 4 3 2 3 5 8 7 8 8 10 11 12 13 13 14 14 13 12 11 10 9 9 9 8 7 6 5 4 3 2 1 2 2 3 3 3 2 2 2 4 5 5 6 6 7
3 1 1 3 4 1 0 1 4 8 10 10 11 11 12 13 13 12 12 13 13 12 10 10 10 9 8 8 8 7 6 5 3 2 3 3 3 4 4 4 4 3 3 4 6 6 6 7 8
4 3 4 4 4 3 2 2 2 4 8 13 14 13 13 13 13 13 13 13 13 11 10 9 8 8 9 9 8 8 7 6 4 3 3 3 4 4 5 5 4 5 5 6 6 7 8 8 9
5 6 6 5 3 2 4 1 1 3 7 10 13 15 15 14 13 13 14 13 13 11 10 9 9 8 8 9 9 8 8 7 6 5 5 5 5 5 5 5 6 6 7 7 8 8 9 10 11
0 1 1 2 3 3 4 1 1 2 2 4 11 14 16 17 15 13 14 15 14 12 11 10 9 8 8 8 8 9 8 8 8 7 6 6 6 6 6 7 7 8 9 9 9 10 11 12 12
3 1 0 1 1 1 2 0 2 1 2 1 4 10 15 17 17 17 15 16 15 14 12 11 10 9 9 9 9 9 9 9 9 8 8 7 7 7 7 8 8 9 9 10 11 11 12 13 14
4 4 1 0 2 0 1 3 2 1 1 1 2 4 13 15 17 18 17 17 16 14 13 12 11 11 11 11 10 10 10 10 10 9 9 8 9 9 9 10 10 10 10 10 11 13 15 16 17
6 6 4 1 1 2 1 2 3 2 1 1 2 2 6 11 15 15 17 18 17 15 13 12 12 12 12 13 13 12 11 11 10 10 9 9 10 10 10 11 11 12 13 13 14 15 16 18 19
6 6 5 4 3 2 3 3 2 0 2 2 2 2 1 8 13 14 15 15 16 16 14 12 12 12 12 12 13 13 12 11 11 10 10 11 12 12 13 14 14 14 15 16 16 17 18 20 21
9 8 8 7 5 3 3 3 3 1 2 2 2 2 2 3 9 13 15 14 16 15 13 12 11 12 11 11 11 11 11 12 11 12 12 12 13 13 14 15 16 17 18 19 21 21 22 22 22
Wind_Direction
94 75 53 65 59 66 75 80 100 122 130 130 141 143 161 140 150 153 152 151 148 143 136 129 123 118 117 115 108 101 97 96 95 93 94 95 96 96 93 102 101 100 99 100 99 99 101 113 119
90 75 70 58 60 81 83 115 116 131 133 138 133 139 174 173 125 155 152 155 153 150 142 134 129 124 121 117 109 103 98 98 95 93 95 95 96 97 96 104 102 99 99 102 103 106 106 111 118
85 74 57 40 57 72 98 133 123 126 140 154 146 121 167 172 157 151 163 161 159 157 152 143 136 130 125 119 111 103 100 99 95 91 93 93 97 101 103 104 104 103 103 103 107 110 113 113 116
81 89 65 58 64 76 89 136 137 131 142 176 153 143 170 180 157 172 166 168 167 165 161 152 145 137 130 122 112 103 101 98 95 92 93 93 97 106 109 108 107 110 109 108 109 113 119 121 121
83 88 63 66 70 67 89 128 146 151 145 166 208 196 204 198 189 176 171 172 171 169 166 160 155 145 138 128 114 105 100 95 91 92 87 81 89 107 117 116 114 119 115 112 113 117 121 125 127
157 77 73 54 49 53 87 144 151 169 172 179 209 197 214 207 193 180 179 178 180 174 170 166 160 154 147 136 119 107 99 93 90 85 79 50 62 117 131 137 130 125 123 119 119 123 127 129 132
192 110 68 63 41 27 99 146 158 173 207 249 208 223 234 204 193 189 184 181 179 179 175 172 167 163 156 143 130 112 98 91 82 74 55 26 19 101 145 152 145 138 132 130 128 132 137 137 136
178 150 112 57 18 360 134 150 190 277 284 245 251 254 232 205 194 190 185 183 181 180 179 178 174 170 166 155 142 125 99 82 65 49 33 40 34 122 130 169 160 153 145 136 132 135 145 151 145
218 198 120 173 299 322 190 222 323 319 271 286 261 255 242 197 192 188 186 187 184 184 181 183 180 175 173 169 159 144 105 69 37 35 32 41 37 64 135 175 180 174 164 153 145 139 140 154 160
232 212 211 273 296 274 240 249 298 304 277 289 275 266 204 192 190 185 187 185 187 185 186 185 182 185 192 181 170 156 114 74 38 30 45 31 24 30 76 180 191 188 177 170 163 160 152 159 167
187 186 203 322 323 264 198 297 309 301 286 274 261 223 193 184 184 184 184 183 182 183 185 185 184 187 181 181 174 163 135 81 44 40 42 27 23 27 27 175 183 190 184 178 178 178 180 183 193
182 194 204 303 335 119 278 327 335 324 315 301 240 182 173 178 180 182 184 181 179 179 181 180 184 181 177 174 176 175 168 107 34 28 32 24 24 37 53 119 168 181 188 188 187 192 197 198 207
201 204 196 203 60 76 61 8 346 349 351 48 143 151 160 171 177 179 176 174 176 177 174 176 176 175 174 177 179 188 188 166 346 15 18 22 22 33 45 79 160 178 184 192 198 201 203 206 213
199 179 160 100 121 85 38 2 346 6 45 111 138 143 149 163 172 175 179 180 175 175 174 171 176 175 175 181 183 187 193 237 5 15 16 8 17 22 46 82 119 165 184 196 206 208 208 204 211
198 193 194 188 195 48 43 21 22 61 98 128 143 146 145 156 171 180 180 176 177 177 174 179 181 182 184 188 191 197 205 205 29 27 28 31 33 41 56 89 111 158 177 195 208 206 204 210 221
89 151 199 195 197 250 338 22 57 96 121 137 148 151 150 151 154 171 179 179 175 171 172 175 177 180 186 189 189 192 186 180 117 51 45 33 36 48 44 69 135 165 175 189 199 203 207 210 216
88 100 184 200 218 190 256 56 120 125 133 144 153 157 152 151 150 149 164 165 168 173 172 173 179 187 194 195 195 203 214 221 228 83 52 33 38 42 31 43 179 188 189 193 196 203 209 211 212
74 80 180 235 207 218 193 122 137 147 153 157 159 163 156 155 154 152 157 165 171 174 179 185 188 195 198 198 201 210 218 221 206 211 348 359 11 5 16 24 99 205 209 207 207 209 209 213 216
25 71 27 8 192 215 210 185 167 156 155 163 172 171 172 170 166 165 169 173 177 181 187 192 199 202 198 198 202 208 211 208 217 232 272 299 323 307 311 341 337 228 221 220 217 220 218 219 224
295 327 350 54 175 187 186 203 184 177 174 170 171 177 179 182 181 181 181 183 187 193 201 205 206 206 202 202 204 200 194 203 212 241 281 266 281 299 292 306 322 284 242 228 223 225 225 224 224
293 259 44 11 151 139 179 191 187 198 191 187 185 184 187 189 189 188 192 194 197 200 201 203 204 202 202 205 202 200 203 208 216 234 268 275 266 282 289 290 297 293 267 240 232 235 232 232 230
355 48 172 131 167 140 83 159 204 204 209 206 201 196 195 194 195 195 197 197 198 201 205 205 206 203 204 203 203 205 209 216 223 251 267 281 276 273 284 283 279 283 277 257 246 242 240 238 241
20 15 113 98 115 115 121 157 126 188 216 216 210 206 202 199 199 201 201 198 197 200 198 199 197 201 204 202 206 209 217 225 238 251 267 287 286 279 274 273 274 277 275 267 253 246 244 246 249
91 85 88 92 103 114 98 84 112 156 217 214 217 213 209 206 204 205 205 202 201 196 199 196 196 198 199 201 208 214 222 231 240 251 268 276 285 280 278 267 269 278 279 270 260 254 254 257 261
62 108 73 106 101 81 98 76 317 198 177 213 213 216 215 212 210 207 205 201 199 199 199 197 197 205 208 211 216 224 231 236 244 253 263 273 278 280 282 275 274 284 280 272 266 262 263 265 267
201 200 52 3 40 334 99 296 49 149 86 310 244 227 220 218 216 214 209 206 205 206 206 209 212 219 221 224 228 235 239 245 252 256 263 271 276 279 281 281 279 292 290 275 269 269 269 270 272
195 212 162 171 126 175 105 354 304 270 297 1 326 233 215 214 211 212 212 210 209 209 214 217 222 230 232 235 237 241 247 250 254 258 263 271 276 280 282 282 283 287 287 283 279 274 273 274 275
229 184 197 208 275 345 327 349 35 102 126 82 43 2 207 209 210 212 214 213 213 214 217 223 230 240 245 243 242 244 248 252 254 258 264 272 277 280 285 284 285 284 281 282 281 282 281 280 278
210 220 227 234 239 235 323 5 15 142 39 34 35 30 229 209 208 209 207 205 211 209 214 227 237 247 249 246 243 243 245 250 253 258 267 274 280 282 286 286 284 284 284 284 284 283 283 281 281
238 239 235 232 212 226 288 299 345 295 345 9 16 41 77 178 193 197 203 207 206 210 219 236 248 250 245 243 238 239 243 249 255 263 271 278 282 286 288 287 288 287 287 287 284 283 284 279 280